DW4776 Weather Reports


time (UTC)temp
C
wind
direction
speed
KPH
gust
KPH
rain 1hr
cm
rain 24hr
cm
rain mn
cm
humidity
%
barometer
mb
20260502123040 8 21 11.3 17.7 0.00 0.00 0.00 55 1018.6
20260502121537 8 4 14.5 20.9 0.00 0.00 0.00 54 1018.7
20260502114544 8 9 16.1 24.1 0.00 0.00 0.00 53 1018.4
20260502113041 9 20 17.7 25.7 0.00 0.00 0.00 52 1018.0
20260502111537 10 29 20.9 32.2 0.00 0.00 0.00 51 1018.0
20260502110039 10 35 20.9 30.6 0.00 0.00 0.00 51 1017.6
20260502104547 10 25 20.9 32.2 0.00 0.00 0.00 49 1017.3
20260502103039 10 36 20.9 32.2 0.00 0.00 0.00 48 1017.0
20260502101607 10 16 22.5 29.0 0.00 0.00 0.00 48 1016.8
20260502070053 12 50 4.8 12.9 0.00 0.00 0.00 32 1015.4
20260502064539 14 29 8.0 16.1 0.00 0.00 0.00 29 1015.3
20260502063039 13 33 9.7 17.7 0.00 0.00 0.00 30 1015.4
20260502061536 13 12 11.3 16.1 0.00 0.00 0.00 30 1015.4
20260502060038 13 358 12.9 19.3 0.00 0.00 0.00 30 1015.3
20260502054541 12 351 6.4 17.7 0.00 0.00 0.00 33 1015.3
20260502053037 13 303 11.3 17.7 0.00 0.00 0.00 33 1015.2
20260502051548 12 325 11.3 17.7 0.00 0.00 0.00 34 1015.3
20260502050042 12 326 14.5 17.7 0.00 0.00 0.00 34 1015.2
20260502044538 13 328 14.5 19.3 0.00 0.00 0.00 33 1015.1
20260502043035 14 325 11.3 22.5 0.00 0.00 0.00 30 1015.0
20260502041611 13 293 17.7 22.5 0.00 0.00 0.00 31 1015.2
20260502040046 14 308 14.5 17.7 0.00 0.00 0.00 27 1015.0
20260502034537 14 307 14.5 17.7 0.00 0.00 0.00 27 1015.0
20260502033041 15 314 12.9 17.7 0.00 0.00 0.00 26 1015.0
20260502031539 16 306 12.9 20.9 0.00 0.00 0.00 23 1014.7
20260502030040 16 319 14.5 20.9 0.00 0.00 0.00 21 1014.5
20260502024542 16 302 11.3 17.7 0.00 0.00 0.00 21 1014.6
20260502023039 17 266 6.4 11.3 0.00 0.00 0.00 19 1014.3
20260502021539 18 256 12.9 19.3 0.00 0.00 0.00 17 1014.2
20260502020039 20 256 9.7 16.1 0.00 0.00 0.00 16 1014.1
20260502014538 20 256 14.5 22.5 0.00 0.00 0.00 15 1014.1
20260502013052 21 253 4.8 14.5 0.00 0.00 0.00 18 1014.2
20260502011537 22 259 4.8 9.7 0.00 0.00 0.00 18 1014.2
20260502010041 22 259 3.2 12.9 0.00 0.00 0.00 18 1014.2
20260502004538 22 287 4.8 16.1 0.00 0.00 0.00 18 1014.3
20260502003039 22 316 11.3 20.9 0.00 0.00 0.00 18 1014.4
20260502001554 22 284 3.2 20.9 0.00 0.00 0.00 18 1014.5
20260502000037 22 342 1.6 22.5 0.00 0.00 0.00 18 1014.6
20260501234536 22 293 16.1 25.7 0.00 0.00 0.00 18 1014.7
20260501233049 21 346 8.0 20.9 0.00 0.00 0.00 18 1015.0
20260501231538 21 316 17.7 22.5 0.00 0.00 0.00 17 1015.0
20260501230039 21 306 17.7 27.4 0.00 0.00 0.00 17 1015.2
20260501224538 21 263 22.5 30.6 0.00 0.00 0.00 17 1015.4
20260501223037 21 276 14.5 37.0 0.00 0.00 0.00 17 1015.5
20260501221534 21 304 11.3 29.0 0.00 0.00 0.00 17 1015.6
20260501220110 21 308 8.0 27.4 0.00 0.00 0.00 17 1015.5
20260501214539 21 258 19.3 29.0 0.00 0.00 0.00 17 1015.8
20260501213039 21 290 17.7 33.8 0.00 0.00 0.00 17 1015.7
20260501211537 21 301 19.3 30.6 0.00 0.00 0.00 18 1015.8
20260501210052 21 274 16.1 33.8 0.00 0.00 0.00 18 1015.8
20260501204540 21 299 16.1 27.4 0.00 0.00 0.00 19 1015.8
20260501203041 21 267 20.9 33.8 0.00 0.00 0.00 19 1016.0
20260501201540 21 307 19.3 32.2 0.00 0.00 0.00 20 1016.2
20260501200037 21 276 14.5 32.2 0.00 0.00 0.00 20 1016.4
20260501194539 20 224 6.4 22.5 0.00 0.00 0.00 20 1016.2
20260501193045 20 247 12.9 37.0 0.00 0.00 0.00 20 1016.5
20260501191537 20 248 16.1 32.2 0.00 0.00 0.00 21 1016.7
20260501190040 20 195 14.5 24.1 0.00 0.00 0.00 21 1016.8
20260501184538 19 266 8.0 29.0 0.00 0.00 0.00 19 1016.9
20260501183056 18 264 9.7 27.4 0.00 0.00 0.00 16 1017.0
20260501181556 19 255 14.5 25.7 0.00 0.00 0.00 19 1017.1
20260501180037 18 260 14.5 27.4 0.00 0.00 0.00 20 1017.2
20260501174538 18 270 11.3 25.7 0.00 0.00 0.00 21 1017.3
20260501173044 18 326 12.9 27.4 0.00 0.00 0.00 21 1017.4
20260501171540 18 211 12.9 22.5 0.00 0.00 0.00 23 1017.4
20260501170046 18 233 11.3 22.5 0.00 0.00 0.00 23 1017.5
20260501164544 17 227 9.7 20.9 0.00 0.00 0.00 24 1017.6
20260501163045 17 268 8.0 20.9 0.00 0.00 0.00 27 1017.6
20260501161536 16 208 9.7 20.9 0.00 0.00 0.00 31 1017.7
20260501160052 15 178 9.7 19.3 0.00 0.00 0.00 33 1018.0
20260501154540 15 255 12.9 20.9 0.00 0.00 0.00 35 1017.9
20260501153036 14 256 12.9 20.9 0.00 0.00 0.00 37 1018.0
20260501151538 13 223 11.3 22.5 0.00 0.00 0.00 39 1018.2
20260501150047 12 234 8.0 20.9 0.00 0.00 0.00 41 1018.1